STARLINK-5275 (55398 NORAD) Tracking and Keplerian Element Data

This shows tracking and keplerian element data for the satellite.

Feedback or suggestion? Click here.




ElementValue
Catalog55398
NameSTARLINK-5275
Epoch Orbit1518
Epoch Day127.1288062
Epoch Year2023
RAAN181.3448
Inclination69.996
Eccentricity0.0003749
Argument of Perigee265.3368
Mean Anonmoly94.7399
Mean Motion15.69923338
Decay Rate1.185E-05
L11 55398U 23014H 23127.12880620 .00001185 00000+0 11625-4 0 9995
L22 55398 69.9960 181.3448 0003749 265.3368 94.7399 15.69923338 15181



Live tracking and technical data element details for STARLINK-5275 (NORAD 55398). STARLINK-5275 can be tracked NOW for your location showing map with azimuth and elevation plus other details from your city location.







IsCatalogInMostPopularTable: catalog: 55398, numindb: 2
Update: records affected: 1



GetName: 55398 STARLINK-5275

Hit Count: updated at: Mon, 05 Jun 2023 19:59:05 GMT